Regional Weather Roundup
Issued by NWS

Home | Current Version | Previous Version | Graphics & Text | Print | Product List | Glossary Off
Versions: 1 2 3 4 5 6 7 8 9 10 11 12 13 14 15 16 17 18 19 20 21 22 23 24 25 26 27 28 29 30 31 32 33 34 35 36 37 38 39 40 41 42 43 44 45 46 47 48 49 50

000
ASUS43 KMKX 180000
RWRWI

WISCONSIN REGIONAL WEATHER ROUNDUP
NATIONAL WEATHER SERVICE MILWAUKEE/SULLIVAN WI
700 PM CDT THU AUG 17 2017

NOTE: "FAIR" INDICATES FEW OR NO CLOUDS BELOW 12,000 FEET WITH NO
SIGNIFICANT WEATHER AND/OR OBSTRUCTIONS TO VISIBILITY.

WIZ001-002-006>008-014>016-023>028-180100-
NORTHWEST WISCONSIN

CITY           SKY/WX    TMP DP  RH WIND       PRES   REMARKS
SUPERIOR ARPT  LGT RAIN  65  61  88 NW12      29.74R
ASHLAND        CLOUDY    63  61  93 NW9       29.70R
6HR MIN TEMP:  62; 6HR MAX TEMP:  65; 6HR PCP:  0.13;

HAYWARD        LGT RAIN  63  60  90 N7        29.73R FOG
6HR MIN TEMP:  62; 6HR MAX TEMP:  67; 6HR PCP:  0.07;

SIREN          CLOUDY    64  61  89 NW14      29.76R
CUMBERLAND     LGT RAIN  61  59  94 NW13      29.74R
RICE LAKE      CLOUDY    64  61  90 NW9G16    29.75R
CHETEK         CLOUDY    64  62  94 NW9G17    29.72R
LADYSMITH      CLOUDY    65  62  90 NW13G20   29.71R FOG
EAU CLAIRE     NOT AVBL
MENOMONIE      CLOUDY    66  61  83 NW14G21   29.73R
NEW RICHMOND   CLOUDY    67  62  84 NW8       29.77R
OSCEOLA        CLOUDY    68  67  96 NW9       29.79R
$$

WIZ003>005-009-010-017-018-180100-
NORTH CENTRAL WISCONSIN

CITY           SKY/WX    TMP DP  RH WIND       PRES   REMARKS
MANITOWISH WTR CLOUDY    60  60 100 NW12G21   29.63R
ARBOR VITAE    CLOUDY    63  60  91 NW15G22   29.62R
WOODRUFF       CLOUDY    63  60  91 NW15G22   29.62R
RHINELANDER    LGT RAIN  66  65  96 NW12G23   29.61R FOG
6HR MIN TEMP:  66; 6HR MAX TEMP:  71; 6HR PCP:  0.09;

EAGLE RIVER    LGT RAIN  67  66  96 W8        29.58S
LAND O LAKES   RAIN      66  64  92 W9G17     29.60R
6HR MIN TEMP:  66; 6HR MAX TEMP:  74;

PHILLIPS       CLOUDY    61  60  97 NW8       29.67R
6HR MIN TEMP:  61; 6HR MAX TEMP:  72; 6HR PCP:  0.32;

TOMAHAWK         N/A     66  63  90 W8        29.62R
MEDFORD        CLOUDY    63  60  88 NW14G22   29.66R
MERRILL        CLOUDY    68  66  94 W13       29.61R
$$

WIZ029-030-035-036-043>047-180100-
CENTRAL WISCONSIN

CITY           SKY/WX    TMP DP  RH WIND       PRES   REMARKS
WAUSAU         CLOUDY    66  63  90 W17G26    29.61R
6HR MIN TEMP:  66; 6HR MAX TEMP:  73; 6HR PCP:  0.06;

MOSINEE        CLOUDY    64  64 100 W17G23    29.64R
MARSHFIELD     LGT RAIN  63  60  90 W14G28    29.67R FOG
6HR MIN TEMP:  63; 6HR MAX TEMP:  74; 6HR PCP:  0.17;

STEVENS POINT  CLOUDY    65  64  96 W14G22    29.64R
WAUPACA        CLOUDY    72  67  84 W20G25    29.61R
WAUTOMA        CLOUDY    67  64  90 W16G28    29.66R
6HR MIN TEMP:  67; 6HR MAX TEMP:  77; 6HR PCP:  0.03;

WISC RAPIDS    CLOUDY    66  63  90 W13       29.68R
6HR MIN TEMP:  66; 6HR MAX TEMP:  75; 6HR PCP:  0.04;

CAMP DOUGLAS   MOCLDY    66  61  85 W15G25    29.70R
6HR MIN TEMP:  66; 6HR MAX TEMP:  76; 6HR PCP: TRACE;

$$

WIZ011>013-019>022-031-037>040-048>050-180100-
NORTHEAST WISCONSIN

CITY           SKY/WX    TMP DP  RH WIND       PRES   REMARKS
ANTIGO         CLOUDY    68  66  91 NW10      29.59R
SHAWANO        MOCLDY    74  67  78 SW12G18   29.55S
6HR MIN TEMP:  72; 6HR MAX TEMP:  80; 6HR PCP:  0.03;

OCONTO         CLOUDY    71  66  85 W8G20     29.54R
STURGEON BAY   CLOUDY    73  66  78 SW13G23   29.55S
6HR MIN TEMP:  72; 6HR MAX TEMP:  78; 6HR PCP:  0.08;

GREEN BAY      CLOUDY    73  68  84 SW15G25   29.57R
6HR MIN TEMP:  71; 6HR MAX TEMP:  79; 6HR PCP: TRACE;

MANITOWOC      LGT RAIN  75  64  69 W12G20    29.60R
APPLETON       CLOUDY    70  68  94 W15       29.59R
CLINTONVILLE   CLOUDY    70  64  83 W12G17    29.58R
OSHKOSH        LGT RAIN  70  66  87 W13G22    29.62R
6HR MIN TEMP:  70; 6HR MAX TEMP:  78; 6HR PCP: TRACE;

$$

WIZ032>034-041-042-053>061-180100-
SOUTHWEST WISCONSIN

CITY           SKY/WX    TMP DP  RH WIND       PRES   REMARKS
LA CROSSE      CLOUDY    73  63  70 NW15      29.73R
6HR MIN TEMP:  72; 6HR MAX TEMP:  78; 6HR PCP: TRACE;

SPARTA         CLOUDY    67  61  81 W8G17     29.72S
VIROQUA        CLOUDY    67  63  85 W12       29.75S
6HR MIN TEMP:  67; 6HR MAX TEMP:  70;

BOSCOBEL       CLOUDY    73  64  73 W7        29.74S
6HR MIN TEMP:  71; 6HR MAX TEMP:  77; 6HR PCP:  0.03;

PRAIRIE DU CHI CLOUDY    73  62  68 W7        29.75R
PLATTEVILLE    CLOUDY    71  67  86 W12G20    29.77S
$$

WIZ056-057-062-063-064-067-068-180100-
SOUTH CENTRAL WISCONSIN

CITY           SKY/WX    TMP DP  RH WIND       PRES   REMARKS
REEDSBURG      CLOUDY    67  65  93 W17G23    29.71R
BARABOO/DELLS  LGT RAIN  67  63  85 W14G20    29.70R
LONE ROCK      NOT AVBL
MINERAL POINT  CLOUDY    70  68  94 W16       29.76R
MADISON        CLOUDY    71  65  81 W8        29.69S
6HR MIN TEMP:  70; 6HR MAX TEMP:  77; 6HR PCP:  0.05;

MIDDLETON      CLOUDY    72  65  79 W18G25    29.70S
WATERTOWN      CLOUDY    71  67  88 SW13G18   29.68R
MONROE         CLOUDY    70  63  78 W23       29.74R
JANESVILLE     CLOUDY    75  63  64 W14       29.72R
$$

WIZ051-052-058>065-066-070>072-180100-
SOUTHEAST WISCONSIN

CITY           SKY/WX    TMP DP  RH WIND       PRES   REMARKS
MILWAUKEE      MOCLDY    77  64  64 W16G32    29.68R
6HR MIN TEMP:  76; 6HR MAX TEMP:  81; 6HR PCP:  0.01;

WAUKESHA       CLOUDY    70  63  78 W15G23    29.70R
MILWAUKEE/TIMM CLOUDY    73  63  68 W17       29.68
RACINE         MOCLDY    74  67  78 W13G21    29.70S
6HR MIN TEMP:  71; 6HR MAX TEMP:  81; 6HR PCP:  0.16;

KENOSHA        CLOUDY    76  64  66 W15G29    29.70R
6HR MIN TEMP:  75; 6HR MAX TEMP:  81; 6HR PCP:  0.02;

FOND DU LAC    CLOUDY    73  63  70 W15G21    29.63R
6HR MIN TEMP:  71; 6HR MAX TEMP:  78; 6HR PCP:  0.03;

SHEBOYGAN      MOCLDY    73  67  81 SW14G22   29.62R
6HR MIN TEMP:  72; 6HR MAX TEMP:  80; 6HR PCP: TRACE;

WEST BEND      MOCLDY    72  64  78 W13       29.65S
JUNEAU         CLOUDY    71  65  82 SW17G25   29.68R
$$

LSZ147-162-180100-
LAKE SUPERIOR

STATION/POSITION TIME  TEMP    WIND        PRES    WAVE
                       AIR SEA DIR/SP/G            HT/PER
                 (UTC) (F)     (DEG/KT/KT) (MB)    (FT/S)
W MID LAKE BUOY  2250   60 60  360/ 19/ 23 1001.8R   5/ 6
DEVILS ISLAND    2300   62     330/  7/  8 1004.6R
SAXON HARBOR     2330   62     350/ 11/ 14 1004.7R
$$

LMZ867-665-643>646-180100-
LAKE MICHIGAN

STATION/POSITION TIME  TEMP    WIND        PRES    WAVE
                       AIR SEA DIR/SP/G            HT/PER
                 (UTC) (F)     (DEG/KT/KT) (MB)    (FT/S)
S GREEN BAY BUOY 2330   74 72  220/ 19/ 23 1000.1F
N MID LAKE BUOY  2250   70 68  180/ 17/ 21 1000.8F   5/ 6
NORTHPORT PIER   2340   71     150/  6/ 10 1000.3F
KEWAUNEE LAKESHO 2330   76     220/  8/ 14 1000.5S
SHEBOYGAN LAKESH 2300   74     230/ 16/ 19 1001.9F
PORT WASHINGTON  2330   75     250/ 10/ 21 1004.4S
ATWATER BUOY     2209   75 71  230/ 19/ 25 1004.5S
MILWAUKEE LAKESH 2330   75     270/ 13/ 19   N/A
S MID LAKE BUOY  2250   74 71  240/ 14/ 16 1004.8F   2/ 5
KENOSHA   LAKESH 2300   77     290/  9/ 15 1005.1
$$

TC  - TEMPERATURE IN CELSIUS
VSB - VISIBILITY IN STATUTE MILES
WCI - WIND CHILL INDEX
HX  - HEAT INDEX





USA.gov is the U.S. government's official web portal to all federal, state and local government web resources and services.